2023/07/30 00:00:00, 0.1,21.7
2023/07/30 00:10:00, 0.1,21.7
2023/07/30 00:20:00, 0.2,21.7
2023/07/30 00:30:00, 0.1,21.8
2023/07/30 00:40:00, 0.1,21.4
2023/07/30 00:50:00, 0.2,21.5
2023/07/30 01:00:00, 0.2,21.5
2023/07/30 01:10:00, 0.2,21.5
2023/07/30 01:20:00, 0.1,21.6
2023/07/30 01:30:00, 0.1,21.7
2023/07/30 01:40:00, 0.1,21.3
2023/07/30 01:50:00, 0.2,21.5
2023/07/30 02:00:00, 0.1,21.5
2023/07/30 02:10:00, 0.1,21.5
2023/07/30 02:20:00, 0.2,21.2
2023/07/30 02:30:00, 5.9,21.3
2023/07/30 02:40:00,20.3,21.3
2023/07/30 02:50:00,20.3,21.4
2023/07/30 03:00:00,20.4,21.4
2023/07/30 03:10:00,20.3,21.3
2023/07/30 03:20:00,20.0,21.3
2023/07/30 03:30:00,19.7,21.0
2023/07/30 03:40:00,19.8,20.8
2023/07/30 03:50:00,20.0,21.0
2023/07/30 04:00:00,19.8,20.7
2023/07/30 04:10:00,19.0,20.6
2023/07/30 04:20:00,18.2,20.5
2023/07/30 04:30:00,19.7,20.5
2023/07/30 04:40:00,20.0,20.6
2023/07/30 04:50:00,20.0,20.4
2023/07/30 05:00:00,19.8,20.4
2023/07/30 05:10:00,19.4,20.4
2023/07/30 05:20:00,19.2,20.4
2023/07/30 05:30:00,18.8,20.6
2023/07/30 05:40:00,18.6,20.4
2023/07/30 05:50:00,18.3,20.3
2023/07/30 06:00:00,18.2,20.6
2023/07/30 06:10:00,18.2,20.8
2023/07/30 06:20:00,18.1,21.0
2023/07/30 06:30:00,17.9,20.8
2023/07/30 06:40:00,17.9,21.0
2023/07/30 06:50:00,17.6,22.4
2023/07/30 07:00:00,17.5,23.3
2023/07/30 07:10:00,17.1,23.7
2023/07/30 07:20:00,16.6,24.3
2023/07/30 07:30:00,17.0,24.2
2023/07/30 07:40:00,17.5,24.6
2023/07/30 07:50:00,17.3,25.4
2023/07/30 08:00:00,16.9,25.6
2023/07/30 08:10:00,16.7,26.7
2023/07/30 08:20:00,16.6,28.0
2023/07/30 08:30:00,16.3,28.6
2023/07/30 08:40:00,16.6,29.8
2023/07/30 08:50:00,16.8,30.2
2023/07/30 09:00:00,17.7,30.8
2023/07/30 09:10:00, 0.0,31.1
2023/07/30 09:20:00, 0.0,30.8
2023/07/30 09:30:00, 0.0,30.7
2023/07/30 09:40:00,---,31.5
2023/07/30 09:50:00, 0.0,31.1
2023/07/30 10:00:00, 0.3,32.1
2023/07/30 10:10:00, 1.8,31.8
2023/07/30 10:20:00, 0.0,32.9
2023/07/30 10:30:00, 0.0,32.6
2023/07/30 10:40:00,---,33.9
2023/07/30 10:50:00, 0.0,33.5
2023/07/30 11:00:00, 0.2,34.6
2023/07/30 11:10:00, 0.1,34.0
2023/07/30 11:20:00, 0.1,33.7
2023/07/30 11:30:00, 0.6,33.8
2023/07/30 11:40:00,---,34.6
2023/07/30 11:50:00,---,35.0
2023/07/30 12:00:00,---,35.6
2023/07/30 12:10:00,13.1,35.6
2023/07/30 12:20:00,19.9,34.7
2023/07/30 12:30:00,18.9,34.9
2023/07/30 12:40:00,18.7,34.5
2023/07/30 12:50:00,18.3,35.1
2023/07/30 13:00:00,17.7,35.8
2023/07/30 13:10:00,17.4,35.3
2023/07/30 13:20:00,18.2,33.7
2023/07/30 13:30:00,18.0,33.6
2023/07/30 13:40:00,17.5,35.0
2023/07/30 13:50:00,16.8,34.3
2023/07/30 14:00:00,17.2,34.7
2023/07/30 14:10:00,17.1,35.2
2023/07/30 14:20:00,17.3,34.4
2023/07/30 14:30:00,17.5,33.2
2023/07/30 14:40:00,17.5,32.1
2023/07/30 14:50:00,17.4,32.2
2023/07/30 15:00:00,17.3,33.2
2023/07/30 15:10:00,17.3,33.7
2023/07/30 15:20:00,17.3,32.4
2023/07/30 15:30:00,17.1,31.7
2023/07/30 15:40:00,16.8,33.5
2023/07/30 15:50:00,16.6,33.2
2023/07/30 16:00:00,16.8,32.6
2023/07/30 16:10:00,16.6,33.3
2023/07/30 16:20:00,16.9,33.2
2023/07/30 16:30:00,16.9,33.2
2023/07/30 16:40:00,17.0,33.4
2023/07/30 16:50:00,17.3,33.5
2023/07/30 17:00:00,17.7,32.9
2023/07/30 17:10:00,17.5,32.8
2023/07/30 17:20:00,17.5,32.3
2023/07/30 17:30:00,17.6,31.3
2023/07/30 17:40:00,17.8,31.5
2023/07/30 17:50:00,18.0,31.1
2023/07/30 18:00:00,18.1,30.2
2023/07/30 18:10:00,18.0,29.7
2023/07/30 18:20:00,18.1,29.2
2023/07/30 18:30:00,18.3,29.0
2023/07/30 18:40:00,18.1,28.2
2023/07/30 18:50:00,16.6,28.2
2023/07/30 19:00:00, 6.5,27.9
2023/07/30 19:10:00, 0.6,27.7
2023/07/30 19:20:00, 0.0,27.5
2023/07/30 19:30:00, 0.1,27.0
2023/07/30 19:40:00, 0.1,26.7
2023/07/30 19:50:00, 0.1,26.7
2023/07/30 20:00:00, 0.1,26.5
2023/07/30 20:10:00, 0.0,26.7
2023/07/30 20:20:00, 0.0,26.2
2023/07/30 20:30:00, 0.0,26.1
2023/07/30 20:40:00, 0.1,26.0
2023/07/30 20:50:00, 0.0,25.7
2023/07/30 21:00:00, 0.0,25.7
2023/07/30 21:10:00, 0.0,25.6
2023/07/30 21:20:00, 0.0,25.6
2023/07/30 21:30:00, 0.0,25.5
2023/07/30 21:40:00, 0.0,25.4
2023/07/30 21:50:00, 0.1,25.3
2023/07/30 22:00:00, 0.1,25.1
2023/07/30 22:10:00, 0.1,25.1
2023/07/30 22:20:00, 0.1,25.1
2023/07/30 22:30:00, 0.0,25.0
2023/07/30 22:40:00, 0.0,24.8
2023/07/30 22:50:00, 0.0,24.8
2023/07/30 23:00:00, 0.0,24.6
2023/07/30 23:10:00, 0.1,24.4
2023/07/30 23:20:00, 0.0,24.2
2023/07/30 23:30:00, 0.0,24.0
2023/07/30 23:40:00, 0.0,23.8
2023/07/30 23:50:00, 0.0,23.7
